Helicity
37 65 52 60 50 58 86 116 119 125 87 93 95 86 56 -5 53 58 48 64 65 57 31 51 33 28 22 29 23 26 28 35 28 28 29 29 28 32 47 51 58 61 44 43
58 53 51 56 68 71 91 102 100 87 106 132 84 73 69 76 87 67 47 42 35 49 44 38 35 35 37 33 35 32 31 33 33 21 18 16 14 19 34 54 81 100 100 110
84 58 55 72 63 59 90 109 107 116 68 95 78 105 146 118 102 62 33 36 9 27 20 24 37 43 51 49 43 40 37 37 34 32 26 31 35 37 47 79 83 100 104 112
66 58 69 77 69 90 67 102 116 101 84 87 99 143 127 152 120 85 26 42 11 -0 -2 1 34 50 53 48 54 53 49 46 49 52 55 70 60 61 64 59 56 68 97 110
65 65 75 75 72 100 65 103 116 137 111 99 129 191 115 188 183 89 33 30 24 15 14 6 23 50 69 79 73 67 61 55 50 64 65 57 73 67 62 74 96 113 120 138
64 69 85 78 71 92 64 89 143 138 133 169 148 188 112 180 181 190 74 66 25 32 24 23 47 72 80 84 86 81 87 79 87 94 103 108 115 120 130 134 125 114 108 129
66 72 79 86 72 89 76 74 68 90 153 167 225 228 105 110 166 208 131 105 95 75 57 68 85 91 97 99 99 97 97 101 107 112 114 120 128 143 158 158 142 121 114 111
106 81 84 102 93 103 103 81 99 121 146 241 303 163 121 119 187 189 171 159 109 93 47 57 65 108 115 120 108 104 112 121 126 129 150 166 172 173 181 174 161 149 105 80
125 79 107 118 124 129 129 120 127 152 192 262 241 197 119 183 124 139 172 166 158 119 78 23 49 96 119 135 136 147 163 172 162 158 152 155 164 186 207 220 203 172 148 114
109 130 112 110 140 176 168 135 148 165 201 230 314 304 233 171 160 170 196 174 174 141 156 73 -6 86 145 166 195 208 220 216 185 182 164 181 199 209 213 223 224 200 154 118
133 169 135 130 136 189 218 169 175 203 259 311 362 328 275 252 125 187 216 198 189 169 118 81 9 70 132 184 241 264 282 263 250 214 214 221 203 197 207 199 188 181 146 152
121 181 198 124 153 209 221 177 257 339 286 374 455 520 379 173 179 231 191 203 192 167 108 81 107 104 123 174 258 302 302 285 263 284 262 208 184 176 175 160 150 166 181 188
148 210 182 174 213 222 270 262 279 348 385 454 429 440 451 362 327 248 169 199 208 175 183 182 167 147 132 147 226 280 299 290 304 292 250 207 184 165 160 146 156 157 157 186
213 303 297 288 240 285 382 365 347 342 463 429 485 335 514 379 240 220 223 266 241 230 221 184 148 131 103 121 191 262 286 300 308 287 253 209 164 148 156 180 179 159 153 147
248 293 305 346 280 281 277 270 262 370 429 383 308 248 293 214 211 204 278 278 258 224 175 158 183 194 184 113 226 299 321 315 287 291 266 194 154 144 152 170 171 171 168 147
367 373 347 313 290 229 205 256 271 288 229 264 215 212 145 298 289 259 208 224 193 165 189 213 191 156 109 170 271 307 309 309 302 274 222 179 173 165 161 158 152 145 136 128
432 445 439 330 310 226 249 234 175 280 353 297 271 277 327 372 365 269 210 202 188 193 178 130 113 153 180 198 237 262 290 289 275 237 212 203 179 162 148 138 128 117 98 89
361 395 371 315 368 322 350 283 271 245 264 333 344 373 374 361 369 270 200 162 216 190 121 106 155 181 198 182 213 241 255 246 230 221 211 189 167 149 131 116 107 93 83 82
171 254 393 413 384 404 214 263 299 293 189 259 273 464 471 424 317 226 169 182 141 116 128 164 198 172 163 180 187 218 225 213 217 221 193 166 143 124 111 95 88 77 79 78
231 196 321 361 294 341 315 265 290 175 247 240 284 395 401 262 321 233 112 135 153 175 161 157 149 153 177 195 207 212 211 220 214 183 159 133 107 98 85 77 79 84 86 83
161 185 192 203 287 275 255 249 136 148 187 117 229 290 265 309 212 138 152 142 149 143 133 150 163 176 186 199 202 209 203 192 163 132 109 96 89 90 79 87 94 93 93 97
156 175 196 204 262 233 163 232 195 278 350 238 271 95 151 186 170 119 111 147 146 146 152 159 176 185 188 206 201 185 159 137 114 107 99 101 96 91 98 111 100 94 90 77
189 198 231 196 201 250 239 286 312 253 241 237 227 196 150 133 150 135 143 159 150 140 156 171 184 180 175 170 161 150 135 118 109 107 102 100 99 96 101 96 96 91 90 83
213 201 241 177 332 327 378 327 278 240 267 152 99 104 128 142 137 136 162 144 136 147 157 177 206 194 172 158 144 129 109 111 106 102 99 96 98 91 99 100 96 87 78 70
300 238 252 256 333 264 279 288 252 165 84 83 106 115 143 131 145 152 128 125 134 138 172 192 194 174 164 150 127 107 98 104 104 102 101 100 108 102 95 84 80 70 64 64
278 283 257 242 222 191 181 180 156 97 101 137 154 158 139 143 137 125 112 118 143 164 187 190 180 167 142 120 104 95 93 105 103 103 104 111 109 99 90 80 70 46 26 24
Wind_Speed
43 51 51 44 43 40 39 39 38 36 35 42 35 25 17 8 10 8 8 8 8 12 25 27 31 36 42 48 53 57 59 59 57 52 49 48 51 53 53 53 54 52 52 53
42 49 41 36 40 42 41 43 44 37 37 42 36 29 23 19 18 16 12 10 8 14 22 25 29 36 41 45 49 53 55 57 56 52 48 46 47 49 52 54 55 56 55 54
41 42 40 41 42 51 49 45 49 46 46 36 39 38 30 25 19 18 16 14 12 11 17 23 27 30 37 42 47 50 52 55 55 54 48 45 44 47 52 56 57 58 56 55
37 37 42 44 43 47 54 45 47 50 53 50 46 49 34 26 19 17 14 13 13 16 20 23 27 32 36 40 44 48 50 53 54 54 52 51 50 50 53 54 56 57 58 58
42 40 44 48 45 43 44 53 50 48 44 47 44 47 43 34 26 15 12 9 11 14 19 23 28 32 33 35 40 44 47 50 51 51 50 48 48 48 50 53 56 58 58 59
37 37 36 43 44 43 49 53 51 48 47 54 49 50 51 38 28 21 17 16 14 17 21 26 33 34 35 37 40 42 44 46 48 47 47 47 48 50 52 55 57 58 58 59
45 38 37 40 51 46 62 63 65 58 60 58 50 57 42 37 27 23 20 21 25 27 27 29 31 31 31 31 35 39 42 46 45 47 48 47 47 48 51 54 55 56 59 58
54 54 43 41 49 56 59 57 57 67 68 65 58 52 50 38 27 23 23 25 30 35 34 36 35 33 30 31 34 38 40 43 44 44 43 43 44 46 49 51 53 53 54 56
52 49 44 43 44 51 54 57 49 56 57 64 54 51 47 38 30 26 24 24 34 44 45 44 41 39 38 35 33 33 37 39 40 43 43 45 47 49 50 52 52 52 53 54
45 60 46 46 46 49 47 42 59 59 71 76 69 68 59 50 40 26 25 28 40 48 51 53 49 42 36 32 32 33 33 36 38 41 43 44 45 46 49 52 55 54 55 58
45 48 53 54 52 51 51 53 52 55 55 70 84 75 47 47 30 32 28 32 42 51 55 58 61 51 40 36 35 35 36 39 41 42 42 44 46 48 51 53 52 53 56 58
43 51 65 61 47 45 47 52 51 64 71 60 72 83 51 41 40 30 30 35 46 51 57 62 64 57 49 44 41 42 41 41 42 43 44 46 47 50 53 54 52 52 55 56
41 54 78 70 58 52 58 54 51 56 63 72 78 76 50 44 36 32 36 43 52 57 59 65 68 66 62 53 47 46 44 43 41 42 44 49 52 52 57 58 51 53 55 54
37 54 59 75 73 71 74 65 56 54 71 78 74 83 58 50 44 45 51 51 52 57 59 63 67 69 63 54 47 44 44 40 40 42 49 54 54 57 56 54 54 53 54 54
45 70 66 70 71 77 79 73 66 66 72 72 80 80 68 58 53 54 48 51 53 54 56 62 70 71 62 52 43 40 41 40 44 45 50 52 55 54 53 53 53 55 55 54
53 77 76 92 78 71 82 74 71 67 70 69 69 79 65 59 50 45 46 49 52 54 57 64 67 68 62 53 46 43 42 44 44 47 51 53 54 53 51 50 51 51 52 53
63 73 76 93 80 81 97 75 62 67 64 62 72 66 52 53 50 47 49 53 55 59 62 64 66 67 62 52 45 44 44 45 47 50 53 53 51 49 49 48 48 49 49 50
72 70 69 90 85 96 76 63 65 70 70 55 62 60 55 48 46 49 43 47 52 58 63 65 66 65 61 55 48 46 46 48 50 51 50 48 46 47 47 46 46 47 47 50
48 70 78 86 86 86 96 76 72 74 82 65 59 51 50 48 55 53 43 48 53 56 59 64 63 60 57 54 51 49 51 51 50 47 45 45 45 46 45 45 46 45 47 48
61 57 72 80 93 98 75 69 60 59 98 57 56 49 48 48 67 60 47 53 58 59 60 60 59 59 57 56 53 50 49 48 45 44 44 45 43 43 42 40 41 45 46 46
80 78 77 87 92 84 65 59 61 87 85 57 61 55 49 53 53 53 53 58 57 58 58 59 58 57 56 54 51 49 47 45 44 44 44 43 42 42 40 39 44 44 45 45
82 84 90 77 84 83 59 67 77 72 66 69 62 55 52 54 58 61 57 58 58 60 61 58 57 55 52 50 50 49 48 44 43 43 44 45 47 44 42 41 45 42 42 45
81 63 78 62 79 71 69 70 66 66 66 66 61 61 61 63 64 64 64 60 60 59 59 57 56 55 52 50 49 49 47 45 44 44 45 46 47 44 42 46 44 44 42 45
64 64 66 80 73 72 72 63 64 64 65 63 61 61 60 65 68 67 64 62 62 59 60 58 59 60 57 52 50 50 49 47 46 46 46 48 44 41 39 43 44 43 44 42
74 76 80 71 68 68 64 74 73 70 65 65 61 63 69 69 68 67 64 62 63 62 61 62 62 60 57 54 54 52 51 48 48 46 48 49 43 40 40 38 45 44 38 36
72 71 71 75 76 73 70 72 71 72 73 72 71 71 68 68 68 67 67 68 68 67 64 64 62 61 60 59 58 56 51 48 49 50 49 46 44 41 38 40 44 42 41 40
Wind_Direction
34 28 25 35 34 32 29 25 21 20 28 16 20 11 6 26 67 86 90 79 52 27 8 6 2 3 358 357 355 353 354 356 1 6 6 9 5 5 1 355 345 339 332 325
25 21 32 36 32 25 21 16 16 21 20 12 14 3 12 59 65 68 82 88 80 37 16 9 3 358 357 356 356 356 357 359 0 4 9 9 6 4 4 2 357 348 341 334
21 23 29 27 24 15 14 14 10 8 6 15 13 12 26 36 50 53 62 71 64 60 28 12 2 0 358 357 355 356 357 357 357 358 6 7 7 5 0 357 356 353 349 341
21 24 19 18 17 15 7 14 7 0 4 7 15 6 8 13 23 36 50 57 57 37 22 12 4 357 354 355 357 356 357 356 357 358 1 3 0 358 358 357 356 353 350 346
9 11 10 10 13 14 7 1 359 3 6 6 8 2 5 9 1 17 34 48 38 24 12 8 0 357 359 359 357 357 357 356 356 359 1 3 5 4 2 359 356 353 352 349
8 11 14 10 9 9 3 1 1 5 4 359 5 2 357 360 360 15 20 20 11 0 357 353 352 354 352 354 354 355 358 357 357 359 0 360 360 358 357 354 351 350 349 349
359 6 10 10 2 7 1 358 353 354 353 351 358 350 348 359 4 8 7 5 359 349 341 341 343 347 348 351 350 351 352 350 353 353 352 355 356 355 355 353 351 348 347 346
351 350 2 5 0 354 357 360 356 346 345 341 343 347 355 1 354 351 356 352 353 348 346 338 334 336 339 342 345 346 348 349 351 351 353 353 352 352 352 353 351 350 348 346
348 348 356 357 359 357 353 351 356 346 344 342 345 343 342 343 338 341 344 351 348 342 340 340 338 332 332 335 339 342 344 347 349 347 348 347 347 347 349 348 350 351 348 344
349 338 352 354 354 354 351 358 346 347 340 337 336 333 336 343 341 344 339 340 337 337 337 338 338 333 330 330 332 336 340 341 341 342 342 343 343 344 344 343 342 344 341 337
346 341 342 345 344 344 346 343 345 342 339 334 332 333 344 340 339 335 334 333 333 335 334 334 334 334 331 329 329 330 331 334 336 338 340 340 340 339 339 339 340 340 338 335
342 337 331 333 344 346 342 336 335 332 332 329 328 322 334 331 329 331 332 333 332 333 333 332 332 332 332 327 324 325 328 329 331 334 336 336 337 338 338 336 337 337 335 332
339 333 329 332 339 343 332 329 327 327 327 318 320 326 342 342 334 330 327 327 328 329 331 330 330 329 330 328 324 321 323 326 331 333 333 333 334 336 335 333 336 334 332 329
335 324 321 319 322 328 323 321 321 317 318 315 309 311 316 321 316 315 317 323 327 329 331 331 330 331 332 331 327 325 324 327 330 332 328 328 332 332 333 334 334 333 330 326
325 316 316 312 313 315 312 313 313 308 304 305 308 311 310 319 314 316 317 321 325 329 332 333 333 334 336 335 332 330 328 329 329 331 328 330 332 334 333 331 330 330 329 326
318 314 317 313 318 316 314 315 312 309 306 303 300 304 312 320 322 323 322 323 326 329 333 335 336 337 338 336 333 331 330 330 332 331 329 331 332 333 333 332 332 332 330 327
313 317 318 314 323 323 317 321 320 322 320 319 312 310 314 318 321 324 324 326 327 329 333 335 336 337 339 338 335 331 331 332 331 330 329 331 334 335 334 334 333 333 331 327
308 309 315 313 319 311 322 334 329 322 319 317 317 320 322 322 326 327 333 332 332 333 332 334 336 336 338 339 339 337 334 332 330 331 333 336 337 336 336 335 334 334 332 327
305 310 313 313 311 313 315 328 328 325 321 326 316 318 321 324 326 326 333 333 334 334 334 334 336 338 339 340 339 337 333 332 333 336 338 338 339 337 337 335 333 333 330 330
323 315 311 315 315 313 324 333 338 337 320 333 333 326 323 326 321 327 334 332 332 332 332 334 336 336 337 338 338 336 334 335 337 339 339 339 340 339 339 339 336 332 330 330
319 319 311 311 312 316 328 336 336 326 328 337 333 329 327 326 330 332 331 331 332 333 334 334 336 337 338 339 339 337 337 337 339 339 339 340 339 339 340 338 334 333 332 331
317 317 316 320 317 319 335 329 324 327 330 332 333 332 330 331 330 330 330 330 331 331 333 335 336 337 339 341 339 336 335 338 339 338 338 338 335 337 337 337 331 334 333 329
315 317 319 318 319 327 332 329 331 332 332 333 332 331 329 328 330 330 329 329 330 332 334 336 336 335 336 336 337 335 336 338 337 337 337 335 335 336 334 331 331 330 330 327
320 322 315 318 324 326 332 335 337 338 335 335 335 333 333 329 330 329 329 329 330 333 333 335 334 331 332 333 333 333 334 334 333 333 333 332 334 336 335 331 328 329 326 327
318 319 319 318 324 327 332 335 333 334 337 336 337 334 331 330 330 330 330 330 330 331 332 332 331 331 331 331 330 331 331 331 329 331 331 330 332 335 334 333 325 324 327 326
323 320 319 316 324 321 324 331 335 333 333 333 333 332 334 334 332 331 329 328 329 329 330 330 330 329 328 328 327 328 328 328 326 327 328 328 329 331 333 331 327 323 321 321